South Bend, IN

6:57 PM EST on December 15, 2017 (GMT -0500)
South Bend Regional

Weather History for KSBN - April, 2014

Change the Weather History Date:

Saturday, April 5, 2014

  Actual Average Record
Temperature  
Mean Temperature 39 °F 45 °F  
Max Temperature 47 °F 55 °F 82 °F (1988)
Min Temperature 31 °F 35 °F 16 °F (1898)
Degree Days  
Heating Degree Days 26 20  
Month to date heating degree days 108 104  
Since 1 July heating degree days 6367 5648  
Cooling Degree Days 0 0  
Month to date cooling degree days 0 0  
Year to date cooling degree days 0 1  
Moisture  
Dew Point 22 °F    
Average Humidity 50    
Maximum Humidity 69    
Minimum Humidity 31    
Precipitation  
Precipitation 0.00 in 0.10 in 3.01 in (1947)
Month to date precipitation 1.18 0.49  
Year to date precipitation 8.81 7.15  
Snow  
Snow 0.00 in 0.10 in 8.20 in (1982)
Month to date snowfall 0.5  
Since 1 July snowfall 65.7  
Snow Depth -    
Sea Level Pressure  
Sea Level Pressure 30.14 in    
Wind  
Wind Speed 10 mph (NW)    
Max Wind Speed 24 mph    
Max Gust Speed 32 mph    
Visibility 10 miles    
Events      
T = Trace of Precipitation, MM = Missing Value Source: NWS Daily Summary

Daily Weather History Graph

Daily Weather History Graph

Search for Another Location

Airport or City:

Trip Planner

Search our weather history database for the weather conditions in past years. The results will help you decide how hot, cold, wet, or windy it might be!

Date:

Astronomy

Apr. 05, 2014 Rise Set
Actual Time 7:21 AM EDT 8:15 PM EDT
Civil Twilight 6:53 AM EDT 8:43 PM EDT
Nautical Twilight 6:19 AM EDT 9:17 PM EDT
Astronomical Twilight 5:44 AM EDT 9:52 PM EDT
Moon 11:25 AM EDT (4/5) 1:27 AM EDT (4/5)
Length of Visible Light 13h 50m
Length of Day
12h 53m
Waxing Crescent, 34% of the Moon is Illuminated
Apr 5
Waxing Crescent
Apr 7
First Quarter
Apr 15
Full
Apr 22
Last Quarter
Apr 29
New

Hourly Weather History & Observations

Time (EDT) Temp. Windchill Dew Point Humidity Pressure Visibility Wind Dir Wind Speed Gust Speed Precip Events Conditions
12:28 AM 35.1 °F 23.8 °F 26.1 °F 70% 29.93 in 10.0 mi WNW 20.7 mph 31.1 mph N/A   Overcast
12:54 AM 35.1 °F 24.1 °F 25.0 °F 67% 29.95 in 10.0 mi WNW 19.6 mph 35.7 mph N/A   Overcast
1:51 AM 33.8 °F 23.5 °F 24.8 °F 70% 29.97 in 10.0 mi WNW 16.1 mph 27.6 mph N/A   Overcast
1:54 AM 34.0 °F 23.0 °F 25.0 °F 70% 29.99 in 10.0 mi NW 18.4 mph 27.6 mph N/A   Overcast
2:54 AM 34.0 °F 22.7 °F 23.0 °F 64% 30.02 in 10.0 mi NW 19.6 mph 26.5 mph N/A   Overcast
3:54 AM 34.0 °F 23.8 °F 24.1 °F 67% 30.04 in 10.0 mi NNW 16.1 mph - N/A   Overcast
4:27 AM 34.0 °F 25.5 °F 24.1 °F 67% 30.04 in 10.0 mi NW 11.5 mph - N/A   Overcast
4:54 AM 34.0 °F 24.6 °F 24.1 °F 67% 30.07 in 10.0 mi NW 13.8 mph 23.0 mph N/A   Overcast
5:54 AM 34.0 °F 25.5 °F 25.0 °F 70% 30.09 in 10.0 mi NW 11.5 mph - N/A   Overcast
6:54 AM 35.1 °F 26.9 °F 23.0 °F 61% 30.11 in 10.0 mi NW 11.5 mph - N/A   Overcast
7:54 AM 35.1 °F 26.4 °F 23.0 °F 61% 30.14 in 10.0 mi NW 12.7 mph - N/A   Overcast
8:45 AM 36.0 °F 29.0 °F 24.1 °F 62% 30.14 in 10.0 mi NW 9.2 mph - N/A   Overcast
8:54 AM 36.0 °F 28.0 °F 24.1 °F 62% 30.17 in 10.0 mi NW 11.5 mph - N/A   Overcast
9:12 AM 36.0 °F 29.6 °F 24.1 °F 62% 30.15 in 10.0 mi NW 8.1 mph - N/A   Overcast
9:36 AM 37.9 °F 29.6 °F 25.0 °F 60% 30.16 in 10.0 mi NW 13.8 mph - N/A   Scattered Clouds
9:54 AM 37.0 °F 28.5 °F 25.0 °F 62% 30.19 in 10.0 mi NW 13.8 mph - N/A   Scattered Clouds
10:08 AM 37.0 °F 29.3 °F 25.0 °F 62% 30.17 in 10.0 mi NW 11.5 mph - N/A   Mostly Cloudy
10:15 AM 37.0 °F 29.3 °F 24.1 °F 59% 30.17 in 10.0 mi NW 11.5 mph - N/A   Scattered Clouds
10:54 AM 39.9 °F 33.4 °F 25.0 °F 55% 30.20 in 10.0 mi WNW 10.4 mph - N/A   Partly Cloudy
11:54 AM 42.1 °F 35.2 °F 24.1 °F 49% 30.21 in 10.0 mi NNW 12.7 mph - N/A   Clear
12:54 PM 42.1 °F 35.7 °F 23.0 °F 47% 30.22 in 10.0 mi NW 11.5 mph 17.3 mph N/A   Clear
1:54 PM 45.0 °F 39.3 °F 21.0 °F 39% 30.22 in 10.0 mi NW 11.5 mph - N/A   Clear
2:54 PM 46.0 °F 41.0 °F 19.9 °F 35% 30.22 in 10.0 mi NNW 10.4 mph - N/A   Clear
3:54 PM 46.0 °F 41.0 °F 18.0 °F 33% 30.22 in 10.0 mi NW 10.4 mph - N/A   Clear
4:54 PM 46.0 °F 41.9 °F 18.0 °F 33% 30.20 in 10.0 mi NW 8.1 mph 17.3 mph N/A   Clear
5:54 PM 46.9 °F - 18.0 °F 32% 30.21 in 10.0 mi North 10.4 mph - N/A   Clear
6:54 PM 45.0 °F 41.2 °F 15.1 °F 30% 30.20 in 10.0 mi North 6.9 mph - N/A   Clear
7:54 PM 43.0 °F - 17.1 °F 35% 30.20 in 10.0 mi Calm Calm - N/A   Clear
8:54 PM 42.1 °F 39.2 °F 17.1 °F 37% 30.21 in 10.0 mi ESE 4.6 mph - N/A   Clear
9:54 PM 39.9 °F 36.7 °F 17.1 °F 40% 30.21 in 10.0 mi ESE 4.6 mph - N/A   Clear
10:54 PM 36.0 °F 33.3 °F 18.0 °F 48% 30.22 in 10.0 mi SSE 3.5 mph - N/A   Clear
11:54 PM 33.1 °F - 18.0 °F 54% 30.22 in 10.0 mi Calm Calm - N/A   Clear